Temp
-10 -10 -10 -10 -10 -9 -8 -9 -9 -10 -10 -11 -10 -9 -10 -10 -9 -9 -8 -9 -9 -9 -9 -8 -8 -8 -8 -8 -9 -9 -9 -10 -10 -10 -9 -9 -9 -8 -8 -8 -8 -8 -8 -8 -8 -8 -8 -8 -8
-10 -10 -11 -10 -10 -9 -8 -9 -9 -10 -11 -10 -10 -10 -10 -10 -10 -10 -9 -9 -9 -9 -9 -9 -8 -8 -8 -8 -9 -9 -10 -9 -10 -9 -9 -9 -8 -8 -8 -8 -8 -8 -8 -9 -9 -9 -8 -8 -8
-11 -11 -11 -10 -10 -9 -9 -10 -10 -10 -11 -11 -11 -11 -10 -10 -10 -9 -10 -10 -10 -9 -9 -9 -9 -9 -8 -9 -9 -9 -10 -9 -9 -9 -9 -9 -9 -8 -8 -8 -9 -8 -9 -9 -9 -9 -9 -9 -8
-11 -11 -11 -10 -10 -10 -10 -11 -11 -11 -11 -10 -11 -11 -11 -10 -10 -10 -10 -10 -10 -10 -10 -9 -9 -9 -9 -9 -9 -9 -9 -9 -9 -9 -9 -9 -9 -9 -9 -8 -9 -9 -8 -9 -9 -9 -9 -9 -8
-12 -12 -11 -10 -10 -10 -10 -11 -12 -11 -11 -11 -10 -10 -11 -10 -11 -10 -9 -10 -10 -10 -10 -10 -9 -9 -9 -9 -9 -9 -9 -10 -9 -9 -9 -9 -9 -9 -9 -9 -9 -9 -9 -9 -9 -9 -9 -9 -8
-12 -13 -11 -10 -10 -11 -11 -12 -12 -12 -12 -12 -12 -11 -10 -11 -11 -11 -10 -10 -10 -10 -10 -10 -10 -9 -9 -10 -9 -9 -9 -9 -9 -9 -9 -9 -9 -8 -8 -9 -9 -9 -9 -9 -9 -9 -9 -9 -9
-13 -13 -12 -11 -11 -11 -12 -13 -12 -13 -13 -12 -12 -11 -11 -11 -11 -11 -11 -10 -11 -11 -10 -10 -10 -10 -9 -10 -10 -9 -9 -9 -9 -9 -9 -9 -9 -8 -9 -9 -9 -9 -9 -9 -9 -9 -9 -9 -9
-14 -13 -12 -12 -11 -11 -13 -13 -14 -14 -14 -14 -13 -12 -11 -11 -12 -12 -11 -11 -11 -11 -11 -10 -10 -10 -10 -9 -10 -9 -9 -9 -9 -9 -9 -9 -8 -8 -9 -9 -9 -9 -9 -9 -9 -10 -10 -9 -9
-14 -14 -13 -13 -13 -12 -13 -14 -14 -14 -13 -13 -13 -13 -11 -12 -11 -12 -11 -11 -11 -11 -11 -10 -10 -10 -10 -10 -9 -9 -9 -9 -9 -9 -9 -9 -9 -9 -9 -9 -9 -9 -9 -9 -9 -10 -10 -10 -9
-14 -14 -14 -14 -14 -13 -13 -14 -14 -14 -13 -13 -13 -13 -12 -11 -11 -12 -12 -12 -11 -11 -11 -11 -11 -10 -10 -10 -9 -9 -9 -9 -9 -9 -9 -9 -9 -9 -9 -9 -9 -9 -9 -9 -10 -10 -10 -10 -9
-15 -14 -15 -15 -14 -14 -13 -13 -13 -13 -13 -13 -13 -11 -12 -12 -12 -11 -12 -12 -11 -11 -11 -11 -11 -10 -10 -10 -10 -9 -9 -9 -9 -9 -9 -9 -9 -9 -9 -9 -9 -9 -9 -9 -10 -10 -10 -10 -10
-16 -16 -16 -15 -15 -15 -14 -13 -13 -13 -13 -14 -14 -12 -12 -12 -11 -11 -11 -12 -11 -11 -11 -11 -11 -11 -11 -10 -10 -10 -9 -9 -9 -9 -9 -9 -9 -9 -9 -9 -9 -9 -9 -10 -10 -10 -10 -10 -10
-20 -19 -18 -17 -16 -16 -15 -14 -14 -13 -13 -14 -14 -13 -12 -12 -13 -11 -12 -12 -12 -11 -11 -11 -11 -11 -11 -11 -10 -10 -10 -9 -9 -9 -9 -9 -9 -9 -9 -9 -9 -9 -9 -10 -10 -10 -11 -11 -10
-24 -23 -21 -19 -18 -17 -16 -15 -14 -13 -14 -15 -14 -14 -14 -12 -13 -12 -12 -11 -12 -11 -11 -11 -11 -11 -11 -11 -11 -10 -10 -10 -10 -9 -9 -9 -9 -9 -9 -9 -9 -10 -10 -10 -10 -11 -11 -11 -11
-25 -25 -24 -22 -21 -20 -19 -16 -14 -14 -16 -16 -16 -14 -14 -13 -13 -13 -13 -12 -12 -12 -12 -12 -12 -11 -11 -11 -11 -11 -10 -10 -10 -9 -9 -9 -9 -9 -9 -9 -10 -10 -10 -10 -10 -11 -11 -11 -11
-26 -26 -25 -24 -24 -22 -22 -16 -15 -17 -16 -15 -16 -15 -14 -14 -14 -13 -12 -13 -12 -12 -12 -12 -12 -12 -12 -11 -11 -11 -11 -10 -10 -10 -10 -10 -10 -10 -10 -10 -10 -10 -10 -10 -11 -11 -11 -11 -11
-27 -27 -27 -26 -26 -25 -24 -17 -17 -18 -17 -16 -15 -15 -14 -15 -14 -14 -12 -12 -13 -13 -13 -12 -12 -12 -12 -11 -12 -11 -11 -11 -11 -10 -10 -10 -10 -10 -10 -10 -10 -10 -11 -11 -11 -11 -11 -11 -11
-27 -27 -26 -26 -26 -26 -25 -20 -20 -19 -18 -16 -16 -16 -14 -15 -14 -14 -13 -13 -13 -13 -13 -12 -12 -13 -12 -12 -12 -12 -12 -12 -11 -11 -11 -10 -11 -11 -11 -11 -11 -11 -11 -11 -11 -11 -12 -12 -12
-26 -26 -26 -26 -26 -27 -26 -25 -23 -19 -18 -16 -16 -15 -14 -14 -15 -15 -14 -13 -13 -13 -13 -13 -12 -12 -13 -13 -12 -12 -12 -12 -12 -12 -12 -11 -11 -11 -12 -12 -11 -11 -12 -12 -12 -12 -12 -12 -12
-26 -26 -25 -25 -26 -27 -27 -26 -26 -23 -19 -17 -16 -15 -14 -14 -15 -14 -14 -15 -13 -13 -13 -13 -13 -13 -13 -12 -12 -12 -13 -12 -12 -12 -12 -12 -12 -12 -12 -12 -12 -12 -12 -12 -12 -12 -12 -13 -13
-26 -26 -26 -25 -26 -26 -26 -26 -26 -24 -21 -18 -17 -15 -14 -14 -14 -14 -13 -13 -12 -13 -13 -13 -13 -13 -13 -12 -12 -12 -12 -12 -12 -12 -12 -12 -13 -13 -13 -12 -13 -13 -13 -13 -13 -13 -13 -13 -13
-25 -26 -26 -25 -25 -25 -26 -26 -25 -24 -23 -20 -17 -15 -15 -15 -14 -13 -13 -13 -13 -13 -13 -13 -13 -13 -13 -13 -12 -12 -12 -12 -12 -12 -13 -13 -13 -13 -13 -13 -13 -13 -13 -13 -13 -13 -13 -13 -14
-25 -25 -25 -25 -25 -25 -25 -26 -24 -25 -23 -21 -17 -15 -14 -14 -14 -14 -13 -13 -13 -13 -13 -14 -14 -13 -13 -13 -12 -13 -13 -12 -12 -12 -12 -13 -13 -13 -13 -13 -13 -13 -13 -13 -14 -14 -14 -14 -14
-25 -26 -25 -25 -25 -25 -25 -26 -25 -25 -23 -22 -20 -16 -14 -13 -16 -14 -14 -12 -14 -14 -14 -13 -13 -13 -13 -13 -13 -13 -13 -12 -12 -13 -12 -12 -13 -13 -13 -13 -13 -13 -13 -14 -14 -14 -14 -14 -14
-25 -25 -25 -25 -25 -24 -25 -26 -24 -25 -25 -22 -20 -17 -15 -14 -14 -15 -14 -14 -14 -14 -13 -13 -13 -13 -13 -13 -13 -13 -13 -13 -13 -13 -13 -12 -12 -12 -13 -13 -13 -13 -13 -14 -14 -14 -14 -14 -14
-24 -25 -25 -24 -25 -25 -25 -24 -24 -26 -25 -22 -21 -18 -16 -14 -14 -13 -14 -14 -14 -14 -14 -13 -14 -13 -14 -14 -13 -13 -13 -13 -13 -13 -12 -12 -12 -12 -13 -13 -14 -14 -14 -14 -14 -14 -14 -14 -14
-24 -24 -24 -24 -25 -24 -24 -23 -23 -23 -23 -22 -20 -18 -15 -14 -14 -15 -14 -14 -15 -14 -14 -14 -14 -14 -14 -14 -14 -13 -14 -13 -13 -12 -12 -12 -12 -12 -13 -13 -14 -14 -14 -14 -14 -15 -14 -14 -14
-24 -24 -24 -24 -24 -23 -23 -23 -23 -22 -22 -22 -20 -17 -15 -15 -14 -15 -14 -14 -14 -15 -15 -15 -14 -14 -14 -14 -14 -13 -13 -13 -13 -13 -13 -13 -12 -13 -13 -14 -14 -14 -14 -15 -15 -15 -15 -15 -15
-23 -24 -24 -24 -23 -23 -22 -22 -22 -22 -22 -21 -20 -18 -16 -15 -15 -16 -15 -15 -15 -16 -15 -15 -14 -14 -14 -13 -13 -13 -13 -13 -12 -12 -13 -12 -12 -13 -13 -14 -14 -14 -15 -15 -15 -15 -16 -16 -15
-23 -22 -21 -21 -22 -22 -23 -22 -22 -22 -21 -21 -20 -18 -17 -15 -16 -16 -16 -15 -15 -15 -14 -14 -14 -14 -13 -13 -13 -14 -13 -13 -13 -13 -13 -13 -13 -13 -13 -13 -14 -15 -15 -15 -15 -15 -15 -15 -15
Height
5777 5777 5778 5779 5782 5781 5783 5789 5790 5790 5792 5794 5796 5797 5798 5800 5801 5805 5808 5812 5810 5812 5815 5816 5817 5819 5821 5823 5825 5827 5829 5832 5833 5833 5835 5837 5840 5842 5843 5845 5846 5846 5846 5847 5847 5847 5847 5848 5848
5770 5768 5768 5770 5772 5773 5778 5784 5784 5786 5787 5788 5790 5792 5792 5794 5795 5800 5804 5807 5807 5809 5811 5813 5813 5815 5818 5820 5822 5825 5828 5830 5833 5833 5834 5836 5838 5840 5842 5843 5844 5845 5845 5846 5846 5846 5846 5846 5847
5761 5760 5761 5760 5762 5766 5770 5776 5777 5779 5778 5780 5783 5786 5786 5789 5792 5795 5798 5802 5803 5806 5806 5809 5811 5811 5815 5817 5820 5823 5825 5827 5831 5832 5834 5835 5836 5838 5839 5841 5842 5843 5843 5844 5844 5845 5845 5845 5845
5750 5750 5751 5751 5755 5761 5762 5768 5769 5770 5770 5771 5776 5779 5782 5784 5788 5790 5791 5797 5799 5803 5803 5806 5808 5809 5811 5815 5817 5819 5823 5825 5827 5831 5832 5834 5835 5836 5837 5839 5840 5841 5841 5842 5843 5843 5843 5843 5843
5739 5739 5739 5742 5747 5750 5752 5758 5760 5761 5762 5762 5769 5772 5774 5777 5782 5782 5787 5793 5795 5799 5799 5802 5804 5806 5808 5811 5813 5816 5819 5822 5824 5827 5829 5831 5833 5834 5835 5837 5838 5839 5839 5840 5841 5841 5841 5841 5841
5727 5727 5729 5733 5736 5739 5743 5746 5752 5751 5755 5756 5759 5764 5768 5772 5775 5776 5782 5788 5792 5794 5795 5798 5801 5803 5805 5808 5810 5812 5815 5819 5821 5824 5826 5828 5830 5832 5833 5835 5836 5836 5837 5838 5839 5839 5839 5839 5839
5716 5713 5719 5722 5724 5726 5732 5737 5739 5743 5743 5748 5752 5755 5761 5765 5769 5771 5775 5781 5787 5789 5791 5794 5797 5799 5801 5804 5806 5809 5811 5815 5818 5820 5823 5825 5828 5830 5831 5833 5834 5834 5835 5836 5836 5837 5837 5837 5837
5702 5701 5708 5710 5712 5712 5716 5718 5721 5722 5728 5736 5742 5746 5751 5758 5762 5764 5768 5773 5780 5784 5786 5789 5792 5794 5797 5801 5802 5805 5808 5811 5814 5817 5819 5822 5825 5827 5829 5830 5831 5832 5833 5833 5834 5834 5834 5834 5835
5683 5687 5695 5698 5693 5698 5699 5702 5704 5711 5719 5723 5730 5736 5744 5750 5755 5755 5760 5766 5773 5778 5780 5783 5787 5790 5793 5796 5799 5801 5804 5808 5810 5813 5815 5818 5821 5823 5825 5827 5828 5829 5830 5831 5831 5831 5831 5831 5831
5662 5670 5677 5676 5676 5680 5681 5682 5690 5697 5710 5718 5721 5725 5734 5741 5743 5747 5753 5761 5765 5770 5773 5777 5781 5785 5788 5792 5795 5796 5799 5803 5806 5808 5811 5814 5817 5819 5822 5823 5825 5826 5827 5827 5828 5828 5828 5827 5827
5641 5648 5653 5656 5659 5662 5664 5671 5677 5687 5696 5705 5709 5714 5720 5730 5736 5739 5744 5752 5758 5762 5766 5771 5775 5780 5784 5787 5790 5792 5794 5797 5801 5803 5806 5809 5812 5814 5817 5819 5821 5822 5823 5824 5824 5824 5824 5823 5823
5613 5620 5628 5633 5640 5645 5649 5655 5663 5673 5688 5691 5698 5704 5709 5714 5725 5728 5736 5744 5749 5755 5759 5765 5768 5773 5778 5782 5785 5786 5789 5792 5795 5798 5801 5804 5807 5809 5812 5815 5817 5818 5819 5819 5819 5820 5819 5818 5818
5589 5594 5601 5606 5615 5622 5627 5637 5645 5664 5672 5676 5685 5690 5698 5707 5715 5721 5727 5733 5739 5744 5751 5756 5762 5766 5772 5776 5779 5782 5784 5787 5789 5793 5797 5799 5802 5804 5807 5810 5812 5813 5814 5814 5815 5815 5815 5814 5813
5570 5570 5577 5586 5596 5600 5607 5618 5628 5654 5653 5659 5666 5679 5684 5695 5704 5712 5718 5724 5731 5736 5742 5748 5753 5761 5766 5770 5773 5777 5779 5782 5785 5788 5791 5794 5797 5799 5803 5804 5806 5808 5809 5808 5809 5810 5809 5809 5807
5556 5555 5559 5568 5574 5577 5584 5597 5620 5628 5626 5639 5649 5661 5671 5685 5694 5703 5709 5717 5724 5728 5734 5741 5747 5753 5759 5763 5766 5772 5774 5777 5780 5783 5787 5790 5792 5795 5798 5799 5801 5803 5803 5803 5804 5804 5803 5803 5801
5545 5542 5546 5557 5553 5562 5561 5586 5605 5597 5609 5621 5633 5645 5657 5672 5684 5692 5700 5706 5713 5720 5727 5734 5741 5746 5751 5755 5761 5766 5769 5773 5776 5778 5783 5785 5788 5791 5793 5792 5794 5797 5797 5797 5798 5798 5797 5797 5795
5536 5533 5533 5536 5541 5542 5543 5563 5574 5572 5585 5604 5617 5630 5642 5657 5670 5681 5690 5695 5703 5711 5718 5725 5733 5740 5745 5748 5754 5760 5764 5767 5771 5774 5778 5781 5784 5787 5787 5786 5789 5790 5791 5792 5792 5791 5790 5790 5788
5526 5524 5526 5527 5537 5531 5532 5538 5546 5553 5566 5586 5600 5614 5626 5643 5657 5667 5674 5681 5691 5701 5710 5717 5724 5731 5736 5741 5747 5753 5758 5762 5765 5769 5772 5775 5779 5781 5780 5780 5783 5784 5785 5785 5785 5784 5783 5781 5780
5520 5518 5518 5522 5526 5523 5524 5525 5530 5539 5553 5570 5586 5597 5611 5629 5643 5653 5662 5669 5683 5693 5701 5709 5716 5724 5730 5737 5741 5745 5751 5755 5758 5762 5766 5769 5771 5773 5773 5773 5775 5777 5777 5777 5777 5776 5774 5773 5771
5512 5509 5510 5513 5516 5510 5513 5512 5518 5526 5539 5555 5570 5586 5598 5613 5628 5639 5653 5667 5674 5685 5693 5701 5707 5716 5722 5729 5732 5737 5742 5747 5749 5753 5758 5762 5764 5764 5765 5766 5767 5769 5769 5769 5769 5767 5765 5765 5762
5502 5502 5503 5503 5507 5505 5507 5504 5509 5517 5524 5536 5552 5571 5586 5602 5618 5630 5643 5659 5662 5672 5683 5692 5700 5710 5715 5721 5725 5731 5736 5739 5744 5748 5752 5755 5755 5754 5755 5758 5758 5759 5760 5760 5760 5758 5756 5754 5753
5489 5496 5493 5495 5497 5496 5497 5493 5500 5507 5510 5520 5537 5554 5574 5592 5609 5621 5635 5650 5656 5667 5676 5684 5693 5702 5708 5713 5718 5723 5728 5731 5734 5735 5739 5743 5743 5745 5747 5749 5750 5750 5751 5751 5749 5748 5747 5744 5743
5489 5488 5489 5489 5489 5488 5489 5488 5493 5497 5500 5511 5524 5543 5562 5578 5597 5613 5625 5639 5651 5658 5668 5676 5686 5694 5701 5706 5710 5715 5720 5723 5726 5728 5730 5733 5735 5736 5739 5739 5739 5740 5740 5739 5738 5738 5736 5734 5733
5486 5487 5486 5484 5483 5481 5484 5485 5483 5487 5492 5500 5513 5530 5549 5563 5583 5601 5616 5626 5639 5652 5662 5670 5679 5688 5694 5699 5704 5710 5713 5716 5719 5720 5723 5725 5726 5726 5728 5729 5729 5729 5729 5728 5727 5726 5726 5725 5723
5488 5486 5484 5482 5480 5480 5482 5478 5477 5478 5480 5488 5502 5517 5536 5553 5572 5593 5609 5623 5635 5648 5658 5665 5672 5681 5687 5693 5698 5704 5708 5710 5712 5713 5715 5716 5717 5718 5717 5717 5718 5719 5719 5718 5717 5716 5715 5714 5713
5488 5486 5482 5480 5480 5479 5479 5475 5473 5471 5470 5476 5493 5511 5528 5546 5565 5588 5604 5616 5635 5644 5654 5661 5667 5675 5683 5688 5692 5697 5702 5703 5704 5706 5708 5708 5708 5708 5706 5706 5707 5707 5708 5708 5707 5705 5704 5702 5701
5492 5489 5485 5482 5479 5475 5475 5474 5473 5470 5469 5471 5486 5503 5522 5538 5559 5577 5596 5611 5626 5640 5651 5658 5663 5670 5676 5681 5685 5688 5695 5695 5697 5700 5699 5699 5697 5697 5695 5695 5695 5696 5697 5697 5695 5693 5692 5690 5688
5494 5489 5487 5483 5479 5476 5475 5472 5469 5465 5468 5473 5482 5500 5518 5536 5554 5571 5590 5606 5623 5636 5644 5649 5654 5661 5666 5670 5676 5680 5686 5688 5692 5691 5691 5691 5688 5685 5685 5685 5687 5687 5686 5685 5683 5681 5679 5678 5675
5497 5492 5488 5483 5481 5478 5474 5472 5473 5469 5471 5480 5486 5501 5518 5537 5554 5575 5586 5603 5619 5630 5637 5643 5650 5655 5658 5662 5668 5673 5677 5679 5682 5683 5683 5683 5680 5677 5676 5676 5675 5675 5674 5672 5670 5668 5666 5664 5661
5497 5493 5486 5482 5481 5478 5478 5479 5479 5481 5485 5490 5496 5506 5518 5535 5552 5569 5587 5599 5612 5625 5631 5638 5644 5648 5653 5657 5662 5665 5669 5671 5672 5674 5675 5674 5672 5668 5666 5664 5663 5661 5659 5658 5656 5654 5652 5649 5645
Wind_Speed
38 38 36 36 37 37 35 28 25 27 27 30 32 30 29 31 30 28 28 21 24 20 21 19 16 15 16 15 15 17 18 19 21 24 22 22 20 17 15 11 7 5 4 2 1 3 6 7 8
39 41 42 40 41 39 37 29 29 25 28 32 33 28 30 30 28 24 28 25 24 23 22 21 18 16 17 16 17 20 21 21 21 21 22 22 20 19 15 11 8 5 3 1 3 3 4 5 5
42 44 45 46 44 40 38 32 30 30 30 33 33 31 33 31 28 27 18 26 25 24 24 22 20 18 18 17 19 22 24 23 23 21 22 24 23 19 16 12 8 5 3 1 4 6 5 5 6
45 48 49 49 44 41 40 34 32 34 35 36 34 34 34 36 29 30 35 25 27 27 25 23 21 20 20 19 21 24 26 26 25 22 23 24 23 20 16 12 9 7 5 3 6 8 8 7 7
50 52 52 49 46 46 44 39 32 38 35 39 32 36 37 36 31 36 35 28 29 27 28 25 23 22 21 21 22 23 28 27 27 25 25 26 25 22 18 14 11 8 6 6 8 10 10 9 8
51 53 51 49 50 49 48 43 36 38 39 38 35 36 40 36 34 37 35 32 29 30 30 27 24 24 23 23 23 23 29 29 29 27 27 28 26 24 20 16 14 10 9 9 11 13 14 11 9
53 55 50 46 50 53 49 45 43 40 41 43 34 39 38 39 37 37 39 35 29 31 32 30 27 26 25 25 24 26 26 30 30 29 28 29 28 25 22 18 15 13 12 12 12 14 16 13 10
54 56 52 47 46 52 50 49 48 46 44 45 44 40 37 41 39 40 41 38 34 33 32 31 30 28 27 27 27 26 27 30 32 31 29 30 29 27 23 20 18 16 15 14 14 16 18 14 12
60 58 53 50 54 51 54 53 55 53 53 50 46 48 43 37 44 46 46 40 36 35 34 33 32 30 29 29 29 27 28 31 32 31 30 30 30 28 26 23 20 18 17 17 16 17 19 18 15
67 63 57 58 58 57 58 60 58 56 54 53 51 51 47 39 35 50 47 43 39 39 38 37 35 33 30 29 28 29 29 33 34 33 31 30 30 29 28 25 23 20 20 20 18 19 20 19 18
73 68 65 63 63 61 64 63 61 59 58 54 53 54 49 54 45 45 51 45 42 42 41 39 37 34 32 29 29 29 31 32 35 34 33 31 30 29 28 27 25 23 23 22 20 21 22 21 20
79 75 71 70 67 66 66 67 65 62 57 58 55 58 52 47 51 38 48 48 48 43 42 40 40 38 34 32 30 30 31 33 36 36 35 33 31 29 27 27 26 25 25 23 22 23 25 25 23
71 73 72 74 73 72 71 68 67 61 60 61 59 57 59 50 53 49 50 52 50 51 41 44 42 38 35 35 33 30 31 34 36 36 35 35 33 31 29 28 28 27 27 26 24 26 26 27 26
47 55 65 69 72 73 75 72 71 59 61 61 64 61 62 49 47 56 54 52 52 53 47 38 42 40 36 36 35 32 32 35 35 35 35 36 34 33 30 30 30 29 28 28 27 27 30 29 29
39 45 48 57 60 66 70 75 70 66 64 64 65 64 66 63 52 51 52 52 53 52 53 49 39 38 38 38 37 35 33 33 35 35 35 36 34 32 30 31 31 30 30 29 30 31 32 32 32
36 38 39 39 44 56 63 75 71 73 68 69 67 68 67 60 59 51 48 57 56 54 53 51 51 42 40 40 40 38 36 33 34 35 33 34 34 32 31 33 32 30 30 30 32 33 35 35 36
30 33 32 33 33 41 51 75 72 74 77 69 71 71 69 62 59 56 45 58 58 57 54 52 50 48 40 41 40 41 38 34 33 34 34 33 33 31 32 35 33 32 32 34 34 35 37 39 39
26 30 29 31 23 33 43 66 66 71 74 74 74 73 73 65 62 63 70 50 59 58 54 52 52 48 47 38 40 43 41 39 35 33 34 35 32 30 33 35 34 34 36 37 38 38 40 42 43
29 30 31 24 22 31 35 45 55 69 75 77 75 79 77 74 62 67 65 47 51 56 55 53 53 52 50 42 43 45 43 42 40 37 36 37 36 35 36 37 38 39 39 39 41 42 44 44 44
30 31 29 18 17 30 35 39 42 52 70 72 75 81 80 75 68 67 64 51 49 53 58 54 55 52 51 49 40 43 46 44 45 43 42 40 39 40 42 41 40 40 41 41 43 45 46 45 46
33 32 28 27 21 28 28 40 41 44 60 71 77 80 82 78 73 69 68 61 42 50 56 57 56 50 50 48 53 42 40 42 45 45 44 42 42 43 44 43 43 43 43 44 45 47 48 48 48
35 30 32 28 28 32 25 33 27 38 50 66 77 84 82 81 76 71 66 68 32 51 50 54 58 54 50 44 50 48 41 36 35 48 55 51 50 49 46 46 46 46 46 46 47 48 48 48 46
24 23 24 26 28 33 34 40 18 22 42 60 76 82 84 83 80 75 69 73 49 43 55 55 55 54 50 47 42 43 43 43 40 37 36 49 53 51 50 48 48 49 48 47 48 49 48 48 47
19 17 21 23 19 30 25 33 27 18 27 44 61 78 85 84 76 74 73 76 70 53 48 51 53 51 47 48 47 41 38 36 35 31 33 39 47 54 53 52 52 51 49 50 50 49 49 49 49
16 15 17 18 18 19 17 28 19 15 14 37 54 72 83 83 80 76 70 73 68 65 50 48 48 52 49 48 46 44 36 37 36 35 37 43 41 43 54 55 55 53 50 51 51 50 49 51 51
16 14 13 14 15 18 19 11 8 12 16 33 39 60 80 82 78 73 72 71 61 55 50 49 43 48 48 44 44 43 41 41 39 36 42 44 45 48 56 59 55 50 49 51 51 51 52 53 54
21 20 17 17 15 18 17 21 8 12 14 32 38 53 78 82 77 72 70 68 65 58 45 50 39 40 43 44 46 47 42 42 40 40 42 45 49 50 56 56 47 46 49 51 53 53 54 55 57
18 23 21 24 28 27 26 16 26 5 12 31 37 43 68 78 75 70 67 64 59 49 39 43 48 42 44 43 43 44 42 42 36 37 41 45 37 44 45 42 45 48 50 51 52 54 55 55 58
27 27 26 27 30 30 24 27 15 5 14 23 29 34 53 71 70 62 61 56 47 44 50 49 41 42 44 43 40 38 36 33 32 32 42 42 43 44 44 44 49 51 51 51 53 55 56 58 59
28 29 30 26 20 19 17 19 10 25 25 24 32 34 38 56 58 56 47 51 46 44 43 45 44 42 42 43 41 38 33 33 33 34 37 35 49 54 48 49 54 57 59 59 55 57 59 61 59
Wind_Direction
277 275 267 260 257 259 261 264 260 248 236 239 248 243 245 237 242 234 232 230 228 223 229 230 229 237 242 234 214 203 197 188 181 178 183 183 180 179 175 174 168 164 129 90 24 244 225 225 232
267 270 270 264 260 261 262 258 259 256 247 240 240 241 243 240 244 238 237 234 230 224 227 232 227 229 235 231 216 204 198 192 192 189 187 182 182 181 182 184 182 176 159 91 7 342 254 227 239
272 263 262 264 263 259 264 259 251 250 246 241 239 235 243 241 241 231 222 227 230 225 225 228 228 225 231 229 218 208 202 199 200 196 191 188 187 189 190 194 191 204 207 323 341 339 322 284 257
274 269 264 262 261 260 258 252 252 245 248 249 236 235 239 238 238 233 235 230 230 229 225 225 226 225 227 229 220 211 208 204 204 201 196 195 195 196 198 201 207 224 247 299 323 325 323 296 285
271 268 265 263 261 258 256 253 245 245 239 251 243 233 231 233 237 238 236 231 231 228 226 224 221 225 227 229 220 216 210 211 207 206 202 200 202 202 205 208 217 232 257 287 303 311 316 299 284
268 266 264 259 259 256 253 254 249 246 249 239 247 237 234 228 229 235 239 236 233 231 229 226 222 223 226 230 224 218 213 213 212 211 207 205 207 209 212 215 224 235 250 271 286 302 311 297 285
265 264 264 259 256 256 253 250 248 244 243 246 227 240 233 230 228 231 235 237 230 233 232 227 224 222 224 228 228 220 216 214 216 214 214 211 212 215 218 223 230 239 249 263 277 293 300 294 287
262 260 262 259 256 253 252 244 240 228 226 237 233 229 237 231 228 227 230 233 228 227 230 228 226 222 224 227 227 225 219 217 216 218 216 217 217 220 223 228 236 245 255 265 277 288 293 284 276
261 257 258 256 251 250 250 246 241 237 233 227 226 230 231 229 230 228 228 227 228 229 231 231 229 225 224 226 228 226 223 222 220 220 222 220 220 222 227 232 240 249 256 264 270 284 293 288 280
261 258 253 250 247 244 245 244 239 240 236 234 230 228 227 219 221 228 230 227 224 230 231 229 229 227 225 227 230 227 228 226 224 225 224 223 223 225 230 235 243 249 256 263 267 283 288 290 285
258 255 250 246 245 242 241 242 241 239 237 232 230 229 224 225 227 232 232 225 221 232 232 228 229 228 228 227 230 230 229 226 224 224 224 225 226 227 232 238 243 248 257 264 266 281 288 292 288
254 251 248 246 243 241 240 240 238 236 236 237 231 229 225 223 219 223 230 227 221 228 229 233 231 231 229 230 229 233 232 227 225 224 226 226 227 228 231 238 244 250 258 261 266 279 289 289 286
260 255 248 243 240 238 237 237 237 234 233 236 233 232 228 226 222 219 226 227 221 224 222 230 231 228 228 229 230 232 235 229 228 228 226 226 225 227 230 237 242 249 256 258 262 276 283 286 288
265 258 254 248 242 238 235 234 235 230 233 232 236 229 228 222 223 223 225 226 225 224 224 226 230 230 229 229 230 230 235 233 229 228 226 225 226 229 233 240 243 251 255 255 265 273 281 286 287
275 269 257 250 245 244 240 230 230 228 231 227 229 230 231 223 226 225 223 226 226 226 227 230 231 231 227 231 230 231 233 235 234 233 228 225 229 233 236 243 247 251 254 259 266 272 279 285 286
278 275 270 254 254 244 243 228 224 232 225 226 225 227 229 227 222 228 224 224 224 225 228 231 231 233 236 233 232 231 233 234 235 235 235 233 233 235 240 246 250 252 256 263 268 273 276 282 287
274 275 267 258 253 250 245 230 226 230 229 223 224 224 224 223 216 217 222 223 219 222 225 230 231 230 234 234 233 232 233 234 235 236 237 239 240 242 244 248 250 255 261 266 270 274 276 281 284
281 278 273 266 249 252 245 238 234 230 225 221 221 221 222 219 214 214 218 216 214 219 221 225 230 233 235 237 236 232 232 234 235 239 241 240 243 244 247 252 256 260 265 268 272 274 276 278 281
293 286 275 267 259 257 251 245 239 232 226 224 219 218 221 217 210 214 219 223 214 217 220 223 227 232 234 234 242 236 231 235 236 238 241 245 245 246 252 257 261 264 266 269 274 276 275 276 279
282 279 279 281 259 256 248 249 245 234 230 224 219 217 218 216 209 212 212 219 235 221 217 221 227 231 232 227 232 237 230 233 237 238 239 245 249 252 253 256 260 266 269 272 274 275 276 277 278
278 275 272 267 252 258 268 258 253 236 228 225 218 213 216 218 209 209 207 208 211 216 217 218 225 231 235 233 236 239 238 239 245 245 245 246 248 251 255 257 260 265 270 274 276 278 278 278 277
275 261 263 266 257 252 254 281 263 248 231 222 215 213 211 215 214 210 205 205 205 208 213 221 224 226 236 241 238 241 243 246 246 244 239 240 246 248 253 259 263 266 269 274 276 277 278 278 277
300 286 280 277 267 263 251 263 277 265 237 223 215 212 210 211 215 211 207 202 213 202 213 219 223 225 230 237 239 240 244 251 256 255 252 246 246 251 254 258 263 266 268 271 274 277 277 276 277
314 298 298 296 281 277 276 256 287 278 239 227 221 209 209 211 207 210 209 205 208 215 221 222 221 222 227 233 240 243 251 249 253 260 258 258 258 254 253 255 258 262 265 267 270 272 274 275 277
339 327 312 296 289 309 282 268 335 310 246 219 218 210 208 209 207 210 209 215 215 218 220 222 223 223 225 230 237 242 247 255 261 267 270 265 259 260 257 255 257 262 267 270 272 273 273 274 277
26 4 343 327 323 320 301 304 305 273 206 198 208 213 205 208 208 205 209 217 218 215 216 223 230 224 227 234 239 245 246 262 258 264 272 272 265 263 263 256 255 260 267 271 272 274 274 275 277
17 2 348 344 334 333 348 348 333 18 219 180 195 208 203 205 206 206 206 212 214 214 222 221 227 226 230 236 241 246 247 253 262 266 264 274 281 271 255 256 256 263 270 273 275 275 275 277 279
0 337 335 330 326 337 1 29 348 315 227 177 183 197 202 204 207 204 206 211 210 207 212 219 226 229 229 233 238 243 245 251 257 260 261 269 286 272 259 253 261 268 270 273 276 277 277 279 282
344 335 325 320 323 331 13 20 33 21 149 170 159 172 197 202 207 202 205 208 211 209 217 224 230 230 231 233 238 242 243 247 240 269 267 256 274 275 257 260 265 267 269 271 273 275 278 277 276
350 345 5 10 17 30 13 30 65 98 97 112 138 156 178 198 203 203 202 204 208 210 217 224 229 231 233 237 237 238 238 246 249 258 265 262 271 279 285 266 260 262 263 264 270 273 274 277 281